This is the latest recevied weather packets stored in our database for station/object K4CRS-13. If no packets are shown the sender has not sent any weather packets the latest 10 day(s).
| Time | Temp. | Humidity | Pressure | Rain* | Wind** | Luminosity | Snow |
|---|---|---|---|---|---|---|---|
| 1777205031 | 15.56° C | 99% | 1047.2 hPa | 0 mm | - | 63 W/m² | - |
| 1777204726 | 15.56° C | 99% | 1047 hPa | 0 mm | - | 60 W/m² | - |
| 1777204422 | 15° C | 99% | 1047.1 hPa | 0 mm | - | 52 W/m² | - |
| 1777204119 | 14.44° C | 99% | 1046.9 hPa | 0 mm | - | 42 W/m² | - |
| 1777203814 | 14.44° C | 99% | 1046.6 hPa | 0 mm | - | 32 W/m² | - |
| 1777203514 | 13.89° C | 99% | 1046.8 hPa | 0 mm | - | 25 W/m² | - |
| 1777203210 | 13.89° C | 99% | 1046.8 hPa | 0 mm | - | 19 W/m² | - |
| 1777202908 | 12.78° C | 99% | 1046.8 hPa | 0 mm | - | 15 W/m² | - |
| 1777202607 | 13.33° C | 99% | 1046.9 hPa | 0 mm | - | 12 W/m² | - |
| 1777202307 | 13.33° C | 99% | 1046.7 hPa | 0 mm | - | 8 W/m² | - |
| 1777202003 | 13.33° C | 99% | 1046.5 hPa | 0 mm | - | 5 W/m² | - |
| 1777201699 | 13.89° C | 99% | 1046.2 hPa | 0 mm | - | 3 W/m² | - |
| 1777201395 | 13.33° C | 99% | 1045.9 hPa | 0 mm | - | 1 W/m² | - |
| 1777201091 | 12.78° C | 99% | 1046.2 hPa | 0 mm | - | 1 W/m² | - |
| 1777200788 | 12.78° C | 99% | 1046.1 hPa | 0 mm | - | 0 W/m² | - |
| 1777200483 | 13.89° C | 99% | 1046 hPa | 0 mm | - | 0 W/m² | - |
| 1777200178 | 13.89° C | 99% | 1046.3 hPa | 0 mm | - | 0 W/m² | - |
| 1777199876 | 13.89° C | 99% | 1046.2 hPa | 0 mm | - | 0 W/m² | - |
| 1777199576 | 13.89° C | 99% | 1046.2 hPa | 0 mm | - | 0 W/m² | - |
| 1777199270 | 13.89° C | 99% | 1046.2 hPa | 0 mm | - | 0 W/m² | - |
| 1777198970 | 13.33° C | 99% | 1046.1 hPa | 0 mm | - | 0 W/m² | - |
| 1777198666 | 13.89° C | 99% | 1045.9 hPa | 0 mm | - | 0 W/m² | - |
| 1777198365 | 13.89° C | 99% | 1045.8 hPa | 0 mm | - | 0 W/m² | - |
| 1777198061 | 14.44° C | 99% | 1045.9 hPa | 0 mm | - | 0 W/m² | - |
| 1777197757 | 14.44° C | 99% | 1046 hPa | 0 mm | - | 0 W/m² | - |
* Rain latest hour (hover to see other rain measurements)
** Current wind speed in m/s (hover to see current wind gust speed)